{"data":{"norad_id":45451,"epoch":"2026-09-20T02:19:45.761088Z","epoch_age_seconds":49067,"freshness":"FRESH","line1":"1 45451U 20020AD  26263.09705742 -.00000026  00000+0 -10840-3 0  9991","line2":"2 45451  87.8970   2.1864 0002157  98.2876 261.8496 13.11418880315028","mean_motion":13.1141888,"eccentricity":0.0002157,"inclination_deg":87.897,"raan_deg":2.1864,"arg_perigee_deg":98.2876,"mean_anomaly_deg":261.8496,"bstar":-0.0001084,"rev_number":31502,"period_min":109.80473302321,"perigee_km":1216.0368099144,"apogee_km":1219.313643309,"semimajor_km":7595.8122266117,"source":"CELESTRAK","updated_at":"2026-09-20T09:00:44.557973Z"}}